Terre Haute, IN

5:41 PM EST on February 19, 2018 (GMT -0500)
Terre Haute International-Hulman

Weather History for KHUF - January, 2014

Change the Weather History Date:

Saturday, January 11, 2014

  Actual Average Record
Temperature  
Mean Temperature 39 °F 28 °F  
Max Temperature 45 °F 36 °F 63 °F (2017)
Min Temperature 32 °F 20 °F -17 °F (1977)
Degree Days  
Heating Degree Days 26 37  
Month to date heating degree days 501 407  
Since 1 July heating degree days 2706 2518  
Cooling Degree Days 0 0  
Month to date cooling degree days 0 0  
Year to date cooling degree days 0 0  
Moisture  
Dew Point 32 °F    
Average Humidity 88    
Maximum Humidity 100    
Minimum Humidity 76    
Precipitation  
Precipitation 0.05 in 0.09 in 1.04 in (1975)
Month to date precipitation 1.65 1.06  
Year to date precipitation 1.65 1.06  
Sea Level Pressure  
Sea Level Pressure 29.62 in    
Wind  
Wind Speed 10 mph (SW)    
Max Wind Speed 21 mph    
Max Gust Speed 25 mph    
Visibility 7 miles    
Events Fog , Rain    
T = Trace of Precipitation, MM = Missing Value Source: NWS Daily Summary

Daily Weather History Graph

Daily Weather History Graph

Search for Another Location

Airport or City:

Trip Planner

Search our weather history database for the weather conditions in past years. The results will help you decide how hot, cold, wet, or windy it might be!

Date:

Astronomy

Jan. 11, 2014 Rise Set
Actual Time 8:08 AM EST 5:45 PM EST
Civil Twilight 7:39 AM EST 6:15 PM EST
Nautical Twilight 7:06 AM EST 6:48 PM EST
Astronomical Twilight 6:33 AM EST 7:21 PM EST
Moon 2:29 PM EST (1/11) 4:13 AM EST (1/11)
Length of Visible Light 10h 36m
Length of Day
9h 36m
Waxing Gibbous, 83% of the Moon is Illuminated
Jan 11
Waxing Gibbous
Jan 15
Full
Jan 24
Last Quarter
Jan 30
New
Feb 6
First Quarter

Hourly Weather History & Observations

Time (EST) Temp. Windchill Dew Point Humidity Pressure Visibility Wind Dir Wind Speed Gust Speed Precip Events Conditions
12:53 AM 44.1 °F 38.6 °F - N/A% 29.62 in 7.0 mi SSW 10.4 mph - N/A   Overcast
1:05 AM 44.6 °F 39.2 °F - N/A% 29.61 in 6.0 mi South 10.4 mph - N/A   Haze
1:25 AM 42.8 °F 38.0 °F - N/A% 29.60 in 2.0 mi South 8.1 mph - 0.00 in Rain Light Rain
1:32 AM 41.0 °F 35.8 °F - N/A% 29.60 in 0.8 mi South 8.1 mph - 0.00 in Rain Light Rain
1:45 AM 42.8 °F 38.6 °F - N/A% 29.59 in 0.5 mi South 6.9 mph - 0.01 in Rain Light Rain
1:53 AM 42.1 °F 36.6 °F - N/A% 29.60 in 0.2 mi South 9.2 mph - 0.01 in Rain Light Rain
2:08 AM 42.8 °F 37.0 °F - N/A% 29.58 in 0.5 mi South 10.4 mph - 0.00 in Fog Fog
2:32 AM 42.8 °F 36.2 °F - N/A% 29.55 in 1.8 mi South 12.7 mph - 0.00 in   Overcast
2:53 AM 43.0 °F 36.8 °F - N/A% 29.55 in 0.8 mi South 11.5 mph - 0.00 in Rain Light Rain
3:02 AM 42.8 °F 37.0 °F - N/A% 29.55 in 1.2 mi South 10.4 mph - 0.00 in Rain Light Rain
3:13 AM 42.8 °F 35.8 °F - N/A% 29.55 in 2.5 mi South 13.8 mph - 0.01 in Rain Light Rain
3:23 AM 42.8 °F 37.5 °F - N/A% 29.53 in 4.0 mi South 9.2 mph - 0.02 in Rain Light Rain
3:44 AM 44.6 °F 39.2 °F - N/A% 29.52 in 9.0 mi South 10.4 mph - 0.04 in Rain Light Rain
3:53 AM 43.0 °F 36.4 °F - N/A% 29.52 in 7.0 mi South 12.7 mph - 0.04 in Rain Light Rain
4:10 AM 44.6 °F 40.2 °F - N/A% 29.50 in 10.0 mi South 8.1 mph - 0.00 in Rain Light Rain
4:25 AM 44.6 °F 38.8 °F - N/A% 29.52 in 4.0 mi South 11.5 mph - 0.00 in   Haze
4:33 AM 44.6 °F 38.4 °F - N/A% 29.52 in 7.0 mi South 12.7 mph - 0.00 in   Overcast
4:53 AM 45.0 °F 39.3 °F - N/A% 29.52 in 8.0 mi SSW 11.5 mph - 0.00 in   Overcast
5:53 AM 44.1 °F 37.4 °F - N/A% 29.52 in 10.0 mi WSW 13.8 mph - N/A   Overcast
6:53 AM 42.1 °F 35.2 °F - N/A% 29.53 in 5.0 mi WSW 12.7 mph - N/A   Haze
7:33 AM 41.0 °F 33.9 °F - N/A% 29.52 in 9.0 mi West 12.7 mph - N/A   Overcast
7:49 AM 41.0 °F 34.3 °F - N/A% 29.53 in 10.0 mi West 11.5 mph - N/A   Overcast
7:53 AM 41.0 °F 33.9 °F - N/A% 29.53 in 10.0 mi West 12.7 mph - N/A   Overcast
8:28 AM 39.2 °F 33.0 °F - N/A% 29.55 in 10.0 mi West 9.2 mph - N/A   Overcast
8:53 AM 39.0 °F 32.3 °F 39.0 °F 100% 29.57 in 9.0 mi WSW 10.4 mph - N/A   Overcast
9:20 AM 39.2 °F 31.2 °F 39.2 °F 100% 29.58 in 10.0 mi West 13.8 mph - N/A   Overcast
9:29 AM 39.2 °F 32.0 °F 39.2 °F 100% 29.58 in 10.0 mi West 11.5 mph - N/A   Overcast
9:53 AM 39.0 °F 31.0 °F 37.0 °F 93% 29.60 in 10.0 mi West 13.8 mph - N/A   Overcast
10:53 AM 37.0 °F 30.4 °F 34.0 °F 89% 29.64 in 10.0 mi West 9.2 mph 23.0 mph N/A   Overcast
11:12 AM 37.4 °F 29.8 °F 33.8 °F 87% 29.63 in 10.0 mi West 11.5 mph - N/A   Overcast
11:53 AM 37.0 °F 28.9 °F 30.9 °F 79% 29.65 in 10.0 mi West 12.7 mph 20.7 mph N/A   Overcast
12:48 PM 35.6 °F 26.2 °F 30.2 °F 81% 29.65 in 10.0 mi West 15.0 mph 23.0 mph N/A   Overcast
12:53 PM 36.0 °F 27.1 °F 30.0 °F 79% 29.66 in 10.0 mi West 13.8 mph - N/A   Overcast
1:53 PM 36.0 °F 27.1 °F 32.0 °F 86% 29.66 in 9.0 mi WSW 13.8 mph - N/A   Overcast
2:53 PM 36.0 °F 28.5 °F 32.0 °F 86% 29.67 in 8.0 mi West 10.4 mph - N/A   Overcast
3:25 PM 35.6 °F 27.5 °F 32.0 °F 87% 29.67 in 9.0 mi WSW 11.5 mph - N/A   Overcast
3:53 PM 37.0 °F 28.9 °F 30.9 °F 79% 29.69 in 10.0 mi WSW 12.7 mph - N/A   Overcast
4:53 PM 37.0 °F 28.9 °F 30.9 °F 79% 29.72 in 10.0 mi WSW 12.7 mph - N/A   Overcast
5:53 PM 35.1 °F 29.3 °F 30.9 °F 85% 29.73 in 10.0 mi SW 6.9 mph - N/A   Scattered Clouds
6:53 PM 35.1 °F 29.3 °F 30.0 °F 82% 29.75 in 10.0 mi SW 6.9 mph - N/A   Clear
7:53 PM 33.1 °F 27.7 °F 30.0 °F 89% 29.79 in 9.0 mi SSW 5.8 mph - N/A   Clear
8:53 PM 33.1 °F 28.7 °F 30.0 °F 89% 29.81 in 8.0 mi SW 4.6 mph - N/A   Scattered Clouds
9:53 PM 34.0 °F 27.2 °F 30.0 °F 85% 29.82 in 10.0 mi West 8.1 mph - N/A   Partly Cloudy
10:53 PM 32.0 °F 26.4 °F 28.9 °F 88% 29.84 in 9.0 mi West 5.8 mph - N/A   Clear
11:53 PM 33.1 °F 26.9 °F 28.9 °F 85% 29.87 in 10.0 mi WNW 6.9 mph - N/A   Partly Cloudy